Regional Weather Roundup
Issued by NWS

Home | Current Version | Previous Version | Graphics & Text | Print | Product List | Glossary On
Versions: 1 2 3 4 5 6 7 8 9 10 11 12 13 14 15 16 17 18 19 20 21 22 23 24 25 26 27 28 29 30 31 32 33 34 35 36 37 38 39 40 41 42 43 44 45 46 47 48 49 50
000
ASUS45 KBOI 020810
RWRID

IDAHO REGIONAL WEATHER ROUNDUP
NATIONAL WEATHER SERVICE BOISE ID
200 AM MDT THU JUL 02 2015

NOTE: "FAIR" INDICATES FEW OR NO CLOUDS BELOW 12000 FEET
WITH NO SIGNIFICANT WEATHER AND/OR OBSTRUCTIONS TO VISIBILITY

IDZ012-014-020900-
SOUTHWEST IDAHO


CITY           SKY/WX    TMP DP  RH WIND       PRES   REMARKS
BOISE          MOCLDY    78  44  29 S5        29.94S
CALDWELL       MOCLDY    77  50  38 W6        29.94R
MOUNTAIN HOME  CLEAR     77  40  26 W10       29.95R
$$

IDZ016-017-020900-
SOUTHCENTRAL IDAHO


CITY           SKY/WX    TMP DP  RH WIND       PRES   REMARKS
BURLEY         CLEAR     69  48  47 SW6       30.01S
JEROME         CLEAR     75  44  33 S5        30.02S
TWIN FALLS     PTCLDY    79  40  24 S14       30.01S
$$

IDZ019>023-020900-
SOUTHEAST IDAHO


CITY           SKY/WX    TMP DP  RH WIND       PRES   REMARKS
IDAHO FALLS    CLEAR     60  54  80 N3        30.07R
POCATELLO      CLEAR     74  44  34 SW12      30.03S
REXBURG        PTCLDY    63  56  78 NE5       30.09S
$$

IDZ006-010-011-018-031-032-020900-
CENTRAL IDAHO MOUNTAINS


CITY           SKY/WX    TMP DP  RH WIND       PRES   REMARKS
MCCALL         CLEAR     65  47  52 N7        30.15R
STANLEY          N/A     50  34  54 SE5       30.28R
SALMON         CLEAR     66  41  39 CALM      30.09R
CHALLIS        PTCLDY    68  41  37 NW5       30.15R
$$

IDZ002-004-006-007-026-020900-
NORTHERN IDAHO


CITY           SKY/WX    TMP DP  RH WIND       PRES   REMARKS
LEWISTON       CLEAR     79  45  29 CALM      29.93R
LOWELL           N/A     66  54  65 NW5       30.01R
COEUR D`ALENE  CLEAR     64  52  63 CALM      29.99S
MULLAN PASS    CLEAR     67  37  33 CALM      30.24S
$$



USA.gov is the U.S. government's official web portal to all federal, state and local government web resources and services.